DW6494 Weather Reports


Display with metric or nautical units.
time (UTC)temp
F
wind
direction
speed
MPH
gust
MPH
rain 1hr
in
rain 24hr
in
rain mn
in
humidity
%
barometer
mb
20260509093529 60 341 9.0 17.0 0.00 0.00 0.00 40 1015.0
20260509093030 60 312 10.0 13.0 0.00 0.00 0.00 40 1015.0
20260509092534 61 313 10.0 18.0 0.00 0.00 0.00 40 1015.0
20260509092031 61 340 10.0 26.0 0.00 0.00 0.00 38 1015.0
20260509091530 61 329 10.0 17.0 0.00 0.00 0.00 38 1015.0
20260509091029 62 334 11.0 20.0 0.00 0.00 0.00 37 1015.0
20260509090529 62 296 10.0 22.0 0.00 0.00 0.00 36 1015.0
20260509090030 62 311 13.0 19.0 0.00 0.00 0.00 35 1015.0
20260509085529 62 291 10.0 16.0 0.00 0.00 0.00 36 1015.0
20260509085030 62 305 10.0 18.0 0.00 0.00 0.00 35 1015.0
20260509084530 63 302 8.0 16.0 0.00 0.00 0.00 35 1015.0
20260509084029 63 319 10.0 15.0 0.00 0.00 0.00 36 1015.0
20260509083529 63 297 9.0 16.0 0.00 0.00 0.00 37 1015.0
20260509082554 63 303 9.0 12.0 0.00 0.00 0.00 39 1015.0
20260509082031 63 306 9.0 13.0 0.00 0.00 0.00 38 1015.0
20260509081531 63 323 9.0 16.0 0.00 0.00 0.00 39 1015.0
20260509081031 63 323 13.0 21.0 0.00 0.00 0.00 39 1015.0
20260509080529 63 307 8.0 16.0 0.00 0.00 0.00 40 1015.0
20260509080031 63 319 9.0 16.0 0.00 0.00 0.00 41 1015.0
20260509075529 63 303 8.0 13.0 0.00 0.00 0.00 39 1015.0
20260509075031 64 292 9.0 14.0 0.00 0.00 0.00 38 1015.0
20260509074530 64 312 10.0 14.0 0.00 0.00 0.00 38 1015.0
20260509074031 64 293 12.0 16.0 0.00 0.00 0.00 37 1015.0
20260509073529 63 304 11.0 16.0 0.00 0.00 0.00 37 1015.0
20260509073031 61 315 9.0 13.0 0.00 0.00 0.00 36 1015.0
20260509072530 58 307 6.0 12.0 0.00 0.00 0.00 39 1015.0
20260509072029 57 28 3.0 4.0 0.00 0.00 0.00 43 1015.0
20260509071529 58 0 0.0 0.0 0.00 0.00 0.00 41 1015.0
20260509071029 58 0 0.0 0.0 0.00 0.00 0.00 43 1015.0
20260509070529 58 0 0.0 0.0 0.00 0.00 0.00 39 1015.0
20260509070029 58 334 0.0 0.0 0.00 0.00 0.00 41 1015.0
20260509065529 59 0 0.0 0.0 0.00 0.00 0.00 40 1015.0
20260509065030 59 87 3.0 4.0 0.00 0.00 0.00 36 1014.0
20260509064529 59 92 2.0 4.0 0.00 0.00 0.00 37 1014.0
20260509064029 60 98 2.0 5.0 0.00 0.00 0.00 37 1014.0
20260509063530 60 36 4.0 4.0 0.00 0.00 0.00 36 1014.0
20260509063030 61 30 4.0 4.0 0.00 0.00 0.00 36 1015.0
20260509062530 61 54 4.0 4.0 0.00 0.00 0.00 34 1015.0
20260509062030 61 38 3.0 4.0 0.00 0.00 0.00 33 1015.0
20260509061529 62 30 3.0 3.0 0.00 0.00 0.00 32 1015.0
20260509061031 61 16 4.0 6.0 0.00 0.00 0.00 32 1015.0
20260509060530 61 18 3.0 4.0 0.00 0.00 0.00 33 1015.0
20260509060031 61 48 5.0 5.0 0.00 0.00 0.00 33 1015.0
20260509055530 61 32 4.0 6.0 0.00 0.00 0.00 33 1015.0
20260509055030 61 49 6.0 6.0 0.00 0.00 0.00 34 1015.0
20260509054529 60 92 3.0 5.0 0.00 0.00 0.00 34 1015.0
20260509054030 60 34 5.0 9.0 0.00 0.00 0.00 34 1014.0
20260509053530 60 42 7.0 9.0 0.00 0.00 0.00 37 1014.0
20260509053029 60 48 4.0 4.0 0.00 0.00 0.00 38 1014.0
20260509052529 60 60 4.0 4.0 0.00 0.00 0.00 37 1014.0
20260509052030 60 54 4.0 4.0 0.00 0.00 0.00 37 1014.0
20260509051529 60 43 5.0 5.0 0.00 0.00 0.00 38 1014.0
20260509051030 60 29 4.0 4.0 0.00 0.00 0.00 39 1014.0
20260509050530 60 43 4.0 5.0 0.00 0.00 0.00 38 1014.0
20260509050031 61 44 4.0 5.0 0.00 0.00 0.00 39 1014.0
20260509045530 61 59 0.0 0.0 0.00 0.00 0.00 35 1014.0
20260509045030 62 22 4.0 4.0 0.00 0.00 0.00 35 1014.0
20260509044529 62 41 0.0 1.0 0.00 0.00 0.00 34 1014.0
20260509044031 62 43 3.0 3.0 0.00 0.00 0.00 35 1014.0
20260509043531 62 49 4.0 4.0 0.00 0.00 0.00 36 1014.0
20260509043031 62 56 1.0 3.0 0.00 0.00 0.00 36 1014.0
20260509042530 62 0 0.0 0.0 0.00 0.00 0.00 34 1014.0
20260509042031 63 0 0.0 0.0 0.00 0.00 0.00 34 1014.0
20260509041530 63 0 0.0 0.0 0.00 0.00 0.00 34 1014.0
20260509041030 63 131 2.0 4.0 0.00 0.00 0.00 34 1014.0
20260509040529 63 0 0.0 0.0 0.00 0.00 0.00 34 1014.0
20260509035543 63 17 1.0 3.0 0.00 0.00 0.00 33 1014.0
20260509035029 63 0 0.0 0.0 0.00 0.00 0.00 34 1014.0
20260509034529 63 38 1.0 2.0 0.00 0.00 0.00 36 1014.0
20260509034029 64 0 0.0 0.0 0.00 0.00 0.00 32 1014.0
20260509033529 65 0 0.0 0.0 0.00 0.00 0.00 34 1014.0
20260509033029 65 0 0.0 0.0 0.00 0.00 0.00 28 1014.0
20260509032531 65 285 0.0 0.0 0.00 0.00 0.00 27 1014.0
20260509032030 66 0 0.0 0.0 0.00 0.00 0.00 27 1014.0
20260509031529 66 358 7.0 9.0 0.00 0.00 0.00 26 1014.0
20260509031029 66 10 8.0 11.0 0.00 0.00 0.00 25 1014.0
20260509030530 66 9 9.0 12.0 0.00 0.00 0.00 25 1014.0
20260509030030 66 4 6.0 9.0 0.00 0.00 0.00 26 1014.0
20260509025529 66 343 2.0 5.0 0.00 0.00 0.00 27 1014.0
20260509025031 66 3 8.0 12.0 0.00 0.00 0.00 26 1014.0
20260509024530 66 357 4.0 9.0 0.00 0.00 0.00 28 1014.0
20260509024029 66 355 6.0 8.0 0.00 0.00 0.00 28 1014.0
20260509023529 67 345 1.0 5.0 0.00 0.00 0.00 28 1014.0
20260509023030 68 0 8.0 10.0 0.00 0.00 0.00 27 1014.0
20260509022529 68 4 6.0 7.0 0.00 0.00 0.00 25 1014.0
20260509022030 69 250 4.0 7.0 0.00 0.00 0.00 26 1013.0
20260509021530 70 0 5.0 6.0 0.00 0.00 0.00 25 1013.0
20260509021031 70 18 5.0 6.0 0.00 0.00 0.00 24 1013.0
20260509020531 71 353 2.0 4.0 0.00 0.00 0.00 24 1014.0
20260509020031 72 15 5.0 7.0 0.00 0.00 0.00 23 1014.0
20260509015531 74 17 0.0 3.0 0.00 0.00 0.00 22 1013.0
20260509015030 74 349 4.0 5.0 0.00 0.00 0.00 21 1013.0
20260509014530 75 343 9.0 11.0 0.00 0.00 0.00 19 1013.0
20260509014030 76 14 5.0 9.0 0.00 0.00 0.00 19 1013.0
20260509013530 76 9 5.0 8.0 0.00 0.00 0.00 19 1013.0
20260509013030 76 0 6.0 13.0 0.00 0.00 0.00 18 1014.0
20260509012528 76 352 7.0 13.0 0.00 0.00 0.00 17 1014.0
20260509012029 76 353 6.0 9.0 0.00 0.00 0.00 17 1014.0
20260509011531 76 310 4.0 10.0 0.00 0.00 0.00 16 1014.0
20260509011031 76 350 6.0 10.0 0.00 0.00 0.00 16 1014.0
20260509010531 76 2 4.0 9.0 0.00 0.00 0.00 18 1014.0
20260509010031 76 20 9.0 16.0 0.00 0.00 0.00 17 1014.0
20260509005530 76 335 4.0 9.0 0.00 0.00 0.00 18 1014.0
20260509005030 75 356 7.0 14.0 0.00 0.00 0.00 18 1014.0
20260509004530 76 15 7.0 14.0 0.00 0.00 0.00 17 1014.0
20260509004032 76 32 8.0 13.0 0.00 0.00 0.00 17 1014.0
20260509003530 75 343 11.0 17.0 0.00 0.00 0.00 18 1014.0
20260509003030 75 349 10.0 16.0 0.00 0.00 0.00 18 1014.0
20260509002530 75 339 10.0 15.0 0.00 0.00 0.00 18 1014.0
20260509002030 76 340 11.0 21.0 0.00 0.00 0.00 18 1014.0
20260509001532 76 305 8.0 14.0 0.00 0.00 0.00 18 1014.0
20260509001030 76 336 11.0 17.0 0.00 0.00 0.00 17 1014.0
20260509000530 76 343 16.0 21.0 0.00 0.00 0.00 17 1014.0
20260509000031 76 316 9.0 13.0 0.00 0.00 0.00 18 1014.0
20260508235529 76 331 11.0 19.0 0.00 0.00 0.00 18 1014.0
20260508235031 76 328 10.0 18.0 0.00 0.00 0.00 17 1014.0
20260508234530 75 339 8.0 13.0 0.00 0.00 0.00 18 1013.0
20260508234033 75 330 10.0 17.0 0.00 0.00 0.00 18 1014.0
20260508233531 75 55 6.0 15.0 0.00 0.00 0.00 18 1014.0
20260508233031 75 301 9.0 17.0 0.00 0.00 0.00 19 1014.0
20260508232529 75 323 9.0 19.0 0.00 0.00 0.00 19 1014.0
20260508232030 75 357 9.0 17.0 0.00 0.00 0.00 18 1014.0
20260508231531 75 319 8.0 16.0 0.00 0.00 0.00 18 1014.0
20260508231029 75 348 7.0 14.0 0.00 0.00 0.00 19 1014.0
20260508230529 75 4 13.0 39.0 0.00 0.00 0.00 19 1014.0
20260508230030 75 328 12.0 22.0 0.00 0.00 0.00 19 1014.0
20260508225531 75 329 11.0 20.0 0.00 0.00 0.00 19 1014.0
20260508225029 75 331 13.0 19.0 0.00 0.00 0.00 19 1014.0
20260508224532 75 311 10.0 16.0 0.00 0.00 0.00 20 1014.0
20260508224032 75 6 8.0 14.0 0.00 0.00 0.00 20 1014.0
20260508223531 74 322 15.0 22.0 0.00 0.00 0.00 20 1014.0
20260508223029 74 334 12.0 17.0 0.00 0.00 0.00 20 1014.0
20260508222531 75 354 9.0 13.0 0.00 0.00 0.00 20 1014.0
20260508222030 75 323 11.0 23.0 0.00 0.00 0.00 20 1014.0
20260508221530 75 324 10.0 18.0 0.00 0.00 0.00 20 1014.0
20260508221032 75 340 10.0 23.0 0.00 0.00 0.00 20 1014.0
20260508220530 75 326 12.0 18.0 0.00 0.00 0.00 20 1014.0
20260508220030 74 21 12.0 16.0 0.00 0.00 0.00 20 1014.0
20260508215533 74 337 11.0 20.0 0.00 0.00 0.00 20 1014.0
20260508215031 74 345 13.0 18.0 0.00 0.00 0.00 20 1014.0
20260508214531 74 45 11.0 17.0 0.00 0.00 0.00 20 1014.0
20260508214034 74 328 16.0 26.0 0.00 0.00 0.00 19 1015.0
20260508213530 74 29 10.0 18.0 0.00 0.00 0.00 19 1014.0
20260508213031 74 341 16.0 27.0 0.00 0.00 0.00 20 1014.0
20260508212530 74 356 9.0 15.0 0.00 0.00 0.00 20 1014.0
20260508212031 74 30 13.0 18.0 0.00 0.00 0.00 20 1015.0
20260508211529 74 326 12.0 21.0 0.00 0.00 0.00 20 1015.0
20260508211031 74 4 9.0 18.0 0.00 0.00 0.00 20 1015.0
20260508210530 74 349 9.0 20.0 0.00 0.00 0.00 20 1015.0
20260508210033 74 327 10.0 15.0 0.00 0.00 0.00 20 1015.0
20260508205205 74 328 8.0 17.0 0.00 0.00 0.00 20 1015.0
20260508204530 74 320 12.0 17.0 0.00 0.00 0.00 20 1015.0
20260508204031 74 324 13.0 20.0 0.00 0.00 0.00 20 1015.0
20260508203530 73 325 11.0 19.0 0.00 0.00 0.00 21 1015.0
20260508203031 73 323 11.0 17.0 0.00 0.00 0.00 20 1015.0
20260508202531 73 320 9.0 20.0 0.00 0.00 0.00 20 1015.0
20260508202032 73 333 12.0 18.0 0.00 0.00 0.00 21 1015.0
20260508201532 73 334 10.0 19.0 0.00 0.00 0.00 21 1015.0
20260508201029 73 317 9.0 17.0 0.00 0.00 0.00 21 1015.0
20260508200529 73 313 7.0 16.0 0.00 0.00 0.00 21 1016.0
20260508200031 73 334 13.0 24.0 0.00 0.00 0.00 21 1016.0
20260508195530 73 318 11.0 22.0 0.00 0.00 0.00 22 1016.0
20260508195031 74 330 11.0 14.0 0.00 0.00 0.00 21 1016.0
20260508194531 73 31 11.0 19.0 0.00 0.00 0.00 21 1015.0
20260508194030 73 318 14.0 22.0 0.00 0.00 0.00 22 1016.0
20260508193531 73 336 11.0 18.0 0.00 0.00 0.00 21 1016.0
20260508193029 73 322 11.0 16.0 0.00 0.00 0.00 21 1016.0
20260508192532 73 327 10.0 17.0 0.00 0.00 0.00 22 1016.0
20260508192031 73 325 9.0 20.0 0.00 0.00 0.00 22 1016.0
20260508191533 72 5 4.0 10.0 0.00 0.00 0.00 24 1016.0
20260508191031 72 328 13.0 19.0 0.00 0.00 0.00 22 1016.0
20260508190529 72 31 13.0 19.0 0.00 0.00 0.00 24 1016.0
20260508190033 72 282 6.0 10.0 0.00 0.00 0.00 24 1016.0
20260508185532 72 357 7.0 12.0 0.00 0.00 0.00 24 1016.0
20260508185033 72 32 11.0 19.0 0.00 0.00 0.00 24 1016.0
20260508184531 72 339 9.0 16.0 0.00 0.00 0.00 26 1016.0
20260508184031 72 7 7.0 13.0 0.00 0.00 0.00 26 1016.0
20260508183531 72 1 10.0 17.0 0.00 0.00 0.00 24 1016.0
20260508183032 72 17 10.0 17.0 0.00 0.00 0.00 27 1016.0
20260508182531 71 14 8.0 17.0 0.00 0.00 0.00 27 1016.0
20260508182031 71 311 9.0 15.0 0.00 0.00 0.00 27 1016.0
20260508181532 71 295 5.0 9.0 0.00 0.00 0.00 28 1016.0
20260508181029 71 313 10.0 17.0 0.00 0.00 0.00 29 1016.0
20260508180531 71 1 5.0 12.0 0.00 0.00 0.00 28 1017.0
20260508180031 70 359 9.0 16.0 0.00 0.00 0.00 28 1017.0
20260508175533 70 285 7.0 12.0 0.00 0.00 0.00 27 1016.0
20260508175033 71 314 10.0 17.0 0.00 0.00 0.00 28 1017.0
20260508174533 70 338 9.0 18.0 0.00 0.00 0.00 27 1017.0
20260508174031 71 314 7.0 14.0 0.00 0.00 0.00 27 1017.0
20260508173531 71 337 8.0 12.0 0.00 0.00 0.00 25 1017.0
20260508173032 70 4 9.0 16.0 0.00 0.00 0.00 27 1017.0
20260508172532 70 317 1.0 6.0 0.00 0.00 0.00 29 1017.0
20260508172032 69 312 3.0 5.0 0.00 0.00 0.00 35 1017.0
20260508171533 69 335 4.0 8.0 0.00 0.00 0.00 36 1017.0
20260508171033 69 319 7.0 8.0 0.00 0.00 0.00 35 1017.0
20260508170533 69 354 0.0 3.0 0.00 0.00 0.00 41 1017.0
20260508170033 69 163 3.0 7.0 0.00 0.00 0.00 40 1017.0
20260508165532 69 138 3.0 5.0 0.00 0.00 0.00 42 1017.0
20260508165034 69 166 0.0 0.0 0.00 0.00 0.00 40 1017.0
20260508164533 69 117 0.0 0.0 0.00 0.00 0.00 42 1017.0
20260508164034 68 66 3.0 6.0 0.00 0.00 0.00 40 1017.0
20260508163533 68 227 1.0 3.0 0.00 0.00 0.00 44 1017.0
20260508163032 68 341 1.0 4.0 0.00 0.00 0.00 42 1017.0
20260508162533 68 249 0.0 2.0 0.00 0.00 0.00 43 1017.0
20260508162033 67 0 0.0 0.0 0.00 0.00 0.00 45 1017.0
20260508161534 67 334 2.0 4.0 0.00 0.00 0.00 43 1017.0
20260508161033 67 75 3.0 4.0 0.00 0.00 0.00 44 1017.0
20260508160533 67 0 0.0 0.0 0.00 0.00 0.00 45 1016.0
20260508160034 66 227 0.0 0.0 0.00 0.00 0.00 44 1016.0
20260508155531 65 18 3.0 5.0 0.00 0.00 0.00 42 1016.0
20260508155033 66 333 7.0 7.0 0.00 0.00 0.00 40 1016.0
20260508154535 66 315 2.0 4.0 0.00 0.00 0.00 41 1016.0
20260508154033 66 7 1.0 3.0 0.00 0.00 0.00 41 1016.0
20260508153531 66 150 3.0 4.0 0.00 0.00 0.00 42 1016.0
20260508153034 66 28 2.0 6.0 0.00 0.00 0.00 42 1016.0
20260508152532 65 293 0.0 1.0 0.00 0.00 0.00 42 1016.0
20260508152033 65 67 1.0 3.0 0.00 0.00 0.00 41 1016.0
20260508151531 64 344 2.0 5.0 0.00 0.00 0.00 44 1016.0
20260508151031 64 344 0.0 0.0 0.00 0.00 0.00 44 1016.0
20260508150531 63 335 4.0 5.0 0.00 0.00 0.00 46 1016.0
20260508150030 64 129 1.0 2.0 0.00 0.00 0.00 45 1016.0
20260508145532 63 0 0.0 0.0 0.00 0.00 0.00 45 1016.0
20260508145031 63 136 2.0 4.0 0.00 0.00 0.00 45 1016.0
20260508144533 63 130 0.0 0.0 0.00 0.00 0.00 47 1016.0
20260508144031 63 0 0.0 0.0 0.00 0.00 0.00 47 1016.0
20260508143531 63 24 3.0 4.0 0.00 0.00 0.00 48 1016.0
20260508143029 63 0 0.0 0.0 0.00 0.00 0.00 50 1016.0
20260508142531 63 100 1.0 2.0 0.00 0.00 0.00 50 1016.0
20260508142030 63 111 4.0 4.0 0.00 0.00 0.00 49 1016.0
20260508141533 62 0 0.0 0.0 0.00 0.00 0.00 48 1016.0
20260508141032 62 74 4.0 5.0 0.00 0.00 0.00 50 1016.0
20260508140529 60 48 1.0 2.0 0.00 0.00 0.00 53 1016.0
20260508140033 59 63 3.0 3.0 0.00 0.00 0.00 54 1016.0
20260508135534 58 83 3.0 4.0 0.00 0.00 0.00 50 1016.0
20260508135031 56 0 0.0 0.0 0.00 0.00 0.00 53 1016.0
20260508134531 55 0 0.0 0.0 0.00 0.00 0.00 55 1016.0
20260508134037 54 0 0.0 0.0 0.00 0.00 0.00 57 1016.0
20260508133530 53 0 0.0 0.0 0.00 0.00 0.00 59 1016.0
20260508133031 52 106 4.0 5.0 0.00 0.00 0.00 60 1016.0
20260508132534 51 74 4.0 4.0 0.00 0.00 0.00 63 1016.0
20260508132031 50 94 0.0 0.0 0.00 0.00 0.00 64 1016.0
20260508131532 50 91 2.0 4.0 0.00 0.00 0.00 67 1016.0
20260508131032 49 107 4.0 5.0 0.00 0.00 0.00 69 1016.0
20260508130531 49 0 0.0 0.0 0.00 0.00 0.00 70 1016.0
20260508130031 49 34 0.0 0.0 0.00 0.00 0.00 70 1016.0
20260508125534 48 0 0.0 0.0 0.00 0.00 0.00 72 1015.0
20260508125033 48 0 0.0 0.0 0.00 0.00 0.00 71 1015.0
20260508124532 48 0 0.0 0.0 0.00 0.00 0.00 71 1015.0
20260508124031 48 0 0.0 0.0 0.00 0.00 0.00 70 1015.0
20260508123531 49 0 0.0 0.0 0.00 0.00 0.00 67 1015.0
20260508123034 49 0 0.0 0.0 0.00 0.00 0.00 66 1015.0
20260508122531 49 0 0.0 0.0 0.00 0.00 0.00 65 1015.0
20260508122033 49 0 0.0 0.0 0.00 0.00 0.00 65 1015.0
20260508121531 50 54 3.0 4.0 0.00 0.00 0.00 64 1015.0
20260508121030 50 103 4.0 5.0 0.00 0.00 0.00 64 1015.0
20260508120532 50 107 2.0 3.0 0.00 0.00 0.00 64 1015.0
20260508120034 49 68 3.0 4.0 0.00 0.00 0.00 64 1015.0
20260508115531 49 0 0.0 0.0 0.00 0.00 0.00 64 1015.0
20260508115032 49 57 4.0 5.0 0.00 0.00 0.00 64 1015.0
20260508114531 49 0 0.0 0.0 0.00 0.00 0.00 63 1015.0
20260508114031 49 84 0.0 2.0 0.00 0.00 0.00 63 1015.0
20260508113531 49 0 0.0 0.0 0.00 0.00 0.00 63 1015.0
20260508113031 49 0 0.0 0.0 0.00 0.00 0.00 64 1015.0
20260508112533 49 0 1.0 1.0 0.00 0.00 0.00 63 1015.0
20260508112031 50 0 0.0 1.0 0.00 0.00 0.00 63 1015.0
20260508111531 50 53 3.0 4.0 0.00 0.00 0.00 62 1015.0
20260508111029 50 114 4.0 5.0 0.00 0.00 0.00 62 1015.0
20260508110531 50 127 4.0 5.0 0.00 0.00 0.00 62 1015.0
20260508110032 50 59 0.0 0.0 0.00 0.00 0.00 63 1015.0
20260508105530 50 37 2.0 3.0 0.00 0.00 0.00 62 1015.0
20260508105032 50 52 0.0 0.0 0.00 0.00 0.00 62 1014.0
20260508104529 50 32 2.0 2.0 0.00 0.00 0.00 62 1015.0
20260508104030 50 75 0.0 0.0 0.00 0.00 0.00 63 1015.0
20260508103530 51 0 0.0 0.0 0.00 0.00 0.00 61 1014.0
20260508103033 50 99 4.0 5.0 0.00 0.00 0.00 61 1014.0
20260508102532 50 68 4.0 4.0 0.00 0.00 0.00 63 1014.0
20260508102031 50 0 0.0 0.0 0.00 0.00 0.00 62 1014.0
20260508101530 50 0 0.0 0.0 0.00 0.00 0.00 62 1014.0
20260508101031 51 0 1.0 3.0 0.00 0.00 0.00 60 1014.0
20260508100533 51 6 3.0 3.0 0.00 0.00 0.00 60 1014.0
20260508100031 51 58 4.0 5.0 0.00 0.00 0.00 61 1014.0
20260508095531 51 120 5.0 5.0 0.00 0.00 0.00 59 1014.0
20260508095030 50 98 5.0 5.0 0.00 0.00 0.00 61 1014.0
20260508094530 50 97 4.0 4.0 0.00 0.00 0.00 62 1014.0
20260508094031 50 58 3.0 4.0 0.00 0.00 0.00 62 1014.0